Date String (YYYY-MM-DD hh:mm:ss) UTC,Instrument flags,Ambient pressure (hPa),Sample flow (lpm),Bypass flow (lpm),Sample temperature (°C),Ambient temperature (°C),ASC tube jacket temperature (°C),LED temperature (°C),Box temperature (°C),Sample RH (%),Span deviation,Mass concentration (μg/m³),Mass concentration (μg/m³),Mass concentration (μg/m³)
DateTimeUTC,F1_M11,P_M11,Q1_M11,Q2_M11,T1_M11,T2_M11,T3_M11,T4_M11,T5_M11,U1_M11,ZSPAN_M11,X2_M11,X0_M11,X1_M11
2023-05-15 13:00:00,,0843.0,5.00,0.00,28.5,26.9,00.0,36.8,30.1,26.9,0000.0,0000.85,0001.25,0000.67
2023-05-15 13:01:00,,0842.9,4.99,0.00,28.5,26.9,00.0,36.8,30.1,27.0,0000.0,0000.83,0001.20,0000.66
2023-05-15 13:02:00,,0842.9,5.00,0.00,28.5,26.9,00.0,36.8,30.1,27.0,0000.0,0000.81,0001.16,0000.65
2023-05-15 13:03:00,,0843.0,5.00,0.00,28.5,26.9,00.0,36.8,30.1,27.0,0000.0,0000.80,0001.15,0000.64
2023-05-15 13:04:00,,0842.9,5.00,0.00,28.5,26.9,00.0,36.9,30.1,26.9,0000.0,0000.82,0001.33,0000.64
2023-05-15 13:05:00,,0842.9,5.01,0.00,28.5,26.9,00.0,36.9,30.1,26.9,0000.0,0000.84,0001.38,0000.66
2023-05-15 13:06:00,,0842.9,5.00,0.00,28.5,26.9,00.0,36.9,30.1,27.0,0000.0,0000.86,0001.41,0000.67
2023-05-15 13:07:00,,0842.9,5.00,0.00,28.5,26.9,00.0,36.9,30.1,27.0,0000.0,0000.87,0001.43,0000.67
2023-05-15 13:08:00,,0842.9,5.00,0.00,28.5,26.9,00.0,36.8,30.1,27.0,0000.0,0000.88,0001.43,0000.69
2023-05-15 13:09:00,,0842.9,5.00,0.00,28.5,26.9,00.0,36.8,30.1,27.1,0000.0,0000.88,0001.43,0000.68
2023-05-15 13:10:00,,0842.9,5.00,0.00,28.5,26.9,00.0,36.8,30.1,27.0,0000.0,0000.88,0001.42,0000.69
2023-05-15 13:11:00,,0842.9,5.00,0.00,28.5,26.9,00.0,36.9,30.1,27.1,0000.0,0000.88,0001.44,0000.69
2023-05-15 13:12:00,,0842.9,5.00,0.00,28.5,26.9,00.0,36.9,30.1,27.1,0000.0,0000.89,0001.51,0000.69
2023-05-15 13:13:00,,0842.9,5.00,0.00,28.5,26.9,00.0,36.9,30.1,27.1,0000.0,0000.90,0001.54,0000.68
2023-05-15 13:14:00,,0842.9,5.00,0.00,28.5,26.9,00.0,36.8,30.1,27.1,0000.0,0000.89,0001.54,0000.68
2023-05-15 13:15:00,,0842.9,5.00,0.00,28.5,26.9,00.0,36.9,30.1,27.1,0000.0,0000.89,0001.44,0000.68
2023-05-15 13:16:00,,0842.9,5.00,0.00,28.5,26.9,00.0,36.9,30.1,27.1,0000.0,0000.88,0001.38,0000.68
2023-05-15 13:17:00,,0842.9,5.00,0.00,28.5,26.9,00.0,36.9,30.1,27.1,0000.0,0000.89,0001.40,0000.68
2023-05-15 13:18:00,,0842.9,5.00,0.00,28.5,26.9,00.0,36.9,30.1,27.1,0000.0,0000.91,0001.53,0000.69
2023-05-15 13:19:00,,0842.9,5.00,0.00,28.5,26.9,00.0,36.9,30.1,27.1,0000.0,0000.90,0001.52,0000.68
2023-05-15 13:20:00,,0842.9,5.01,0.00,28.5,26.9,00.0,36.9,30.1,27.1,0000.0,0000.91,0001.54,0000.68
2023-05-15 13:21:00,,0842.9,5.00,0.00,28.5,26.9,00.0,36.9,30.1,27.1,0000.0,0000.93,0001.56,0000.70
2023-05-15 13:22:00,,0842.9,5.00,0.00,28.5,26.9,00.0,36.9,30.1,27.0,0000.0,0000.93,0001.53,0000.71
2023-05-15 13:23:00,,0842.9,5.00,0.00,28.5,26.9,00.0,36.9,30.1,27.1,0000.0,0000.93,0001.48,0000.72
2023-05-15 13:24:00,,0842.9,5.00,0.00,28.5,26.9,00.0,36.9,30.1,27.1,0000.0,0000.92,0001.43,0000.73
2023-05-15 13:25:00,,0842.9,5.00,0.00,28.5,26.9,00.0,36.9,30.1,27.1,0000.0,0000.93,0001.44,0000.74
2023-05-15 13:26:00,,0842.9,5.00,0.00,28.5,26.9,00.0,36.9,30.1,27.2,0000.0,0000.94,0001.44,0000.75
2023-05-15 13:27:00,,0842.9,4.99,0.00,28.5,26.9,00.0,36.9,30.1,27.3,0000.0,0000.97,0001.60,0000.76
2023-05-15 13:28:00,,0843.0,5.01,0.00,28.5,26.9,00.0,36.8,30.1,27.3,0000.0,0000.98,0001.61,0000.77
2023-05-15 13:29:00,,0843.0,5.01,0.00,28.5,26.9,00.0,36.9,30.1,27.3,0000.0,0000.99,0001.54,0000.77
2023-05-15 13:30:00,,0843.0,5.01,0.00,28.5,26.9,00.0,36.9,30.1,27.4,0000.0,0001.01,0001.57,0000.79
2023-05-15 13:31:00,,0843.0,4.99,0.00,28.5,26.9,00.0,36.9,30.1,27.4,0000.0,0001.01,0001.56,0000.79
2023-05-15 13:32:00,,0843.0,5.00,0.00,28.5,26.9,00.0,36.9,30.1,27.5,0000.0,0001.01,0001.59,0000.79
2023-05-15 13:33:00,,0843.0,5.00,0.00,28.5,26.9,00.0,36.9,30.1,27.4,0000.0,0001.01,0001.58,0000.78
2023-05-15 13:34:00,,0843.0,5.00,0.00,28.5,26.9,00.0,36.9,30.1,27.4,0000.0,0000.99,0001.53,0000.78
2023-05-15 13:35:00,,0843.0,5.00,0.00,28.5,26.9,00.0,36.9,30.1,27.4,0000.0,0001.00,0001.54,0000.78
2023-05-15 13:36:00,,0843.0,5.00,0.00,28.5,26.9,00.0,36.9,30.1,27.4,0000.0,0001.01,0001.55,0000.79
2023-05-15 13:37:00,,0843.0,5.00,0.00,28.5,26.9,00.0,36.9,30.1,27.4,0000.0,0001.02,0001.60,0000.78
2023-05-15 13:38:00,,0843.0,5.00,0.00,28.5,26.8,00.0,36.8,28.4,27.4,0000.0,0001.00,0001.49,0000.77
2023-05-15 13:39:00,,0843.0,5.00,0.00,28.5,26.9,00.0,36.9,30.1,27.6,0000.0,0001.04,0002.11,0000.78
2023-05-15 13:40:00,,0843.0,5.01,0.00,28.5,26.9,00.0,36.9,30.1,27.6,0000.0,0001.01,0002.81,0000.78
2023-05-15 13:41:00,,0843.0,4.99,0.00,28.5,26.9,00.0,36.9,30.1,27.7,0000.0,0001.01,0002.95,0000.78
2023-05-15 13:42:00,,0843.0,5.00,0.00,28.5,26.9,00.0,36.9,30.1,27.6,0000.0,0001.04,0003.03,0000.79
2023-05-15 13:43:00,,0843.0,5.01,0.00,28.5,26.9,00.0,36.9,30.1,27.7,0000.0,0001.08,0003.90,0000.81
2023-05-15 13:44:00,,0843.0,5.01,0.00,28.5,26.9,00.0,36.9,30.1,27.7,0000.0,0001.11,0004.63,0000.84
2023-05-15 13:45:00,,0843.0,4.98,0.00,28.5,26.9,00.0,36.9,30.1,27.8,0000.0,0001.15,0004.77,0000.86
2023-05-15 13:46:00,,0843.0,5.00,0.00,28.5,26.9,00.0,36.9,30.1,27.9,0000.0,0001.19,0004.82,0000.89
2023-05-15 13:47:00,,0843.1,5.00,0.00,28.6,26.9,00.0,36.9,30.1,27.9,0000.0,0001.22,0004.86,0000.90
2023-05-15 13:48:00,,0843.1,5.01,0.00,28.6,26.9,00.0,36.9,30.1,28.0,0000.0,0001.20,0004.80,0000.91
2023-05-15 13:49:00,,0843.1,5.00,0.00,28.6,26.9,00.0,36.9,30.1,28.2,0000.0,0001.19,0004.76,0000.92
2023-05-15 13:50:00,,0843.1,5.00,0.00,28.6,26.9,00.0,36.9,30.1,28.3,0000.0,0001.16,0004.32,0000.92
2023-05-15 13:51:00,,0843.1,4.99,0.00,28.6,26.9,00.0,36.9,30.1,28.3,0000.0,0001.18,0003.39,0000.93
2023-05-15 13:52:00,,0843.1,5.00,0.00,28.6,26.9,00.0,36.9,30.1,28.3,0000.0,0001.18,0003.27,0000.93
2023-05-15 13:53:00,,0843.1,5.00,0.00,28.6,26.9,00.0,36.9,30.1,28.2,0000.0,0001.14,0003.17,0000.91
2023-05-15 13:54:00,,0843.1,5.01,0.00,28.6,26.9,00.0,36.9,30.1,28.2,0000.0,0001.09,0002.40,0000.89
2023-05-15 13:55:00,,0843.2,5.00,0.00,28.6,26.9,00.0,36.9,30.1,28.4,0000.0,0001.05,0001.62,0000.86
2023-05-15 13:56:00,,0843.1,5.00,0.00,28.6,26.9,00.0,36.9,30.1,28.5,0000.0,0001.03,0001.53,0000.84
2023-05-15 13:57:00,,0843.2,5.00,0.00,28.6,26.9,00.0,36.9,30.1,28.4,0000.0,0001.01,0001.50,0000.82
2023-05-15 13:58:00,,0843.2,5.01,0.00,28.6,26.9,00.0,36.9,30.1,28.3,0000.0,0000.99,0001.49,0000.81
2023-05-15 13:59:00,,0843.2,5.00,0.00,28.6,26.9,00.0,36.9,30.1,28.3,0000.0,0000.99,0001.49,0000.81
